Showing default

HAWK-10B, 60545

Orbit data source: Space-Track

HAWK-10B, 60545 is a payload satellite owned by HawkEye 360 (US) in SSO that was launched on Fri, 16 Aug 2024 UTC via an FALCON 9 launch vehicle from the Air Force Western Test Range (AFWTR). Payload-class satellites include a variety of spacecraft equipped with specific instruments for various scientific and technological missions. These include communications satellites like Starlink; space stations such as the ISS; scientific satellites like the Hubble; Earth observation satellites from companies like Planet Labs, Umbra, and HawkEye 360; GPS; miniature CubeSats for education and research; and military/defense satellites.

Loading next visibility...
Identifier
60545, 2024-149CF
Orbit
SSO
Country
Flag of USUS
Related business
Manufacturer
UTIAS-SFL
Mission
Operational Commercial Sigint
Bus & Motor
HAWK2G, Unknown motor
Mass
31 kg wet, 30 kg dry
Launch date (UTC)
2024-08-16 (1 year ago)
Launch vehicle
FALCON 9
Launch site
Air Force Western Test Range (AFWTR)
Object type
Payload
Rocket body
Debris
Shape & HBR
Box + 2 Pan, 1.0 m
Radar Cross Section
0.240 m², Medium (>0.1 m² and < 1m²)

Expand to show TLE details & history
Last TLE update: 15 hours ago

TLE from 15 hours ago
0 HAWK-10B
1 60545U 24149CF  26023.45284890  .00002473  00000-0  22581-3 0  9990
2 60545  97.6957 101.3221 0004674 204.8455 155.2542 14.95958961 78347
Epoch: 2026-01-23T10:52Z
TLE epoch observation values (Epoch: 2026-01-23T10:52:06.144Z)
Latitude
-0.00004°
Longitude
175.50506°
Altitude
585.401 km
Speed
7.566 km/s
True Right ascension
06h 45m 17s
True Declination
0° 00' 00"
Sunlit
Object was in full shadow at epoch
Visualization orbit readout
Latitude
Unknown
Longitude
Unknown
Altitude
Unknown
Speed
Unknown
Apparent Right ascension
Unknown
Apparent Declination
Unknown
Sunlit
N/A
Visualization observer readout
Local Sidereal Time
03:15:28
Azimuth
Unknown
Elevation
Unknown
Doppler factor
Unknown
Orbital elements
Apogee altitude
579.659 km
Perigee altitude
573.158 km
Semi-major axis
6,954.545 km
Eccentricity
0.00047
Inclination
97.6957°
RAAN
101.3221°
Arg. of periapsis
204.8455°
True anomaly
155.27661°
Mean anomaly
155.2542°
Eccentric anomaly
155.26541°
Mean motion
3.74231 °/min
Orbital period
96.2 mins
BSTAR
0.00022581
Loading maneuver chart data...
Computing Atmospheric mass density...
Loading historical data...
Loading historical data...
Loading historical data...
Loading historical data...
Loading historical data...
Loading historical data...
Loading historical data...

Documentation

Showing up to 5 results
|